Presure
202 207 153 285 298 284 320 385 360 307 303 294 283 274 273 274 267 259 259 265 256 249 256 267 285 287 276 265 261 259 258 269 272 267 267 264 240 240 244 251 263 243 247 241
212 223 273 300 298 301 315 332 369 331 298 285 277 275 277 270 266 250 241 248 251 250 246 247 239 250 254 262 267 267 262 254 253 261 261 262 262 265 235 243 241 247 240 218
230 243 275 296 299 296 315 331 394 376 301 286 276 268 265 241 265 240 233 236 236 237 241 240 253 256 257 258 238 235 267 271 259 258 256 257 261 263 264 264 256 261 274 286
231 297 275 257 282 293 314 305 331 403 369 286 280 282 273 254 244 247 238 231 231 238 243 280 267 261 260 265 268 268 273 276 280 283 286 292 297 291 292 293 276 260 246 236
256 287 277 298 280 277 310 309 306 338 400 296 283 278 274 263 253 250 243 238 236 242 280 265 258 255 256 255 252 251 252 254 258 259 263 260 253 250 243 234 225 224 249 243
283 280 278 301 278 287 284 285 288 317 345 389 280 279 246 256 258 232 235 232 238 239 266 257 247 247 240 241 236 236 235 233 232 236 229 225 225 239 254 257 250 240 222 212
283 287 280 144 291 299 295 281 273 292 324 339 359 273 271 249 259 239 219 235 239 239 266 250 241 243 239 236 234 231 228 228 236 270 285 276 267 235 221 215 209 222 227 236
290 286 284 267 291 277 287 265 269 302 284 318 344 314 277 264 255 262 237 223 235 247 265 250 250 241 236 234 227 294 294 259 221 214 212 214 224 224 210 236 232 242 227 235
287 291 285 274 291 280 283 281 282 296 305 298 295 329 266 273 259 254 249 239 222 255 267 252 239 237 229 228 224 225 223 219 218 216 219 222 223 214 244 237 224 224 234 224
288 305 300 273 292 281 279 295 292 283 298 286 283 305 323 271 278 252 236 249 227 245 263 249 239 239 231 230 226 222 222 217 219 226 230 215 209 244 231 231 226 231 222 216
305 295 282 306 291 282 269 303 287 287 295 285 274 311 301 302 289 269 251 241 248 236 266 250 238 233 234 224 225 223 222 226 228 237 216 228 229 242 241 231 230 223 223 219
299 312 276 295 289 279 281 278 288 297 302 294 291 287 304 310 299 314 269 250 240 223 270 234 240 232 230 229 223 220 223 225 235 218 221 241 234 186 240 227 230 213 234 218
290 310 302 289 289 286 284 287 289 306 301 292 294 298 286 290 320 284 309 277 255 244 232 224 246 235 231 226 224 225 220 230 238 213 223 233 239 244 235 225 224 235 238 229
316 300 301 294 285 285 288 303 292 287 316 317 310 305 311 311 317 332 280 323 273 248 232 232 230 243 239 232 233 226 226 237 228 216 228 234 207 241 240 241 208 234 185 239
293 304 297 295 297 286 289 305 290 318 326 503 624 605 493 402 367 356 331 266 350 264 234 239 236 231 240 235 226 215 229 237 219 215 223 238 243 194 251 245 247 184 213 223
297 306 297 289 299 289 311 312 295 328 350 477 460 473 469 415 354 341 301 274 335 347 256 223 239 225 221 244 244 228 222 238 223 213 216 232 263 252 200 198 229 230 214 231
293 293 294 286 289 172 290 304 295 309 428 427 394 405 426 387 334 314 324 315 324 331 269 246 243 239 230 213 217 236 231 240 215 214 218 219 222 237 241 222 222 211 227 229
289 295 286 286 305 288 294 293 291 144 377 387 361 325 345 362 317 306 307 309 321 326 318 260 233 240 233 230 218 201 233 238 220 218 201 214 214 245 245 222 233 228 201 214
296 282 284 288 299 289 306 276 246 339 377 354 349 341 328 317 306 305 298 308 315 326 332 272 254 230 236 230 218 211 226 217 212 213 212 204 215 227 240 234 232 235 210 220
279 283 289 292 289 287 290 290 233 317 295 346 330 322 310 313 301 300 292 292 312 322 337 330 264 240 233 235 230 214 214 223 217 216 212 217 208 219 221 253 245 231 207 215
276 275 283 289 288 283 278 288 283 294 299 342 319 326 311 297 300 297 293 306 304 315 319 314 323 260 243 234 233 229 219 214 220 220 216 212 208 211 220 216 250 242 210 230
276 277 289 274 285 306 265 284 287 293 307 288 321 313 309 303 291 283 299 303 301 317 313 310 309 312 254 244 233 229 224 214 216 217 220 216 216 215 211 219 225 247 253 237
286 287 287 279 273 289 280 289 286 295 279 301 300 318 321 309 291 292 307 303 294 305 301 302 303 305 307 255 245 236 224 222 213 215 216 216 214 215 210 224 226 228 259 239
279 280 282 284 276 298 286 283 275 283 281 308 294 313 314 292 294 288 300 301 289 293 293 297 299 293 294 295 261 246 236 222 232 216 219 222 218 219 213 227 226 233 251 243
281 286 285 282 278 290 288 275 280 268 274 284 299 285 268 317 287 287 293 291 290 305 288 286 291 289 290 289 292 281 253 234 231 222 229 225 222 224 225 228 225 234 247 252
301 297 287 297 278 297 276 274 271 268 260 275 291 294 280 319 311 294 282 281 286 290 285 280 277 281 283 284 285 287 284 258 247 239 237 227 225 224 225 233 225 244 258 250
300 300 281 289 281 293 292 277 266 284 269 276 284 302 286 271 330 323 287 287 281 275 277 272 272 271 275 273 275 275 276 279 257 250 248 244 239 234 232 238 238 252 252 231
Wind_Speed
98 100 62 86 75 78 66 35 37 28 24 24 22 25 28 30 30 27 26 25 19 16 15 13 16 21 25 28 31 32 33 35 39 45 55 69 66 62 59 59 59 62 63 67
102 104 88 70 69 65 60 50 26 30 17 14 14 18 23 24 25 25 23 21 21 18 15 14 15 15 19 23 29 31 31 33 35 40 45 49 54 63 50 55 55 57 56 54
100 102 84 67 63 59 52 48 32 19 11 6 9 13 16 11 22 21 20 21 19 21 23 23 20 20 21 22 22 24 26 29 34 38 40 42 44 45 48 50 50 51 46 43
94 65 77 59 66 56 47 46 39 23 9 5 6 16 20 18 17 22 19 20 19 18 15 20 24 24 22 22 22 24 24 25 27 27 28 29 28 30 30 29 30 29 33 33
78 67 70 52 61 59 45 36 39 28 18 19 12 15 20 18 19 20 20 18 16 15 17 24 24 22 21 20 21 21 23 25 26 27 27 25 26 27 26 26 28 30 28 29
73 68 65 45 58 49 47 43 37 30 23 12 21 18 8 12 19 11 16 15 15 15 21 24 21 20 19 19 20 19 19 20 20 20 19 22 23 25 25 23 23 22 26 32
69 62 61 48 47 40 37 42 42 26 24 12 13 21 23 10 18 15 12 17 17 15 23 22 22 22 22 22 23 23 22 20 20 24 26 28 27 22 19 22 24 26 27 22
63 60 57 60 44 49 41 47 43 29 21 16 13 19 30 24 18 27 19 13 19 18 24 24 24 25 24 24 23 21 22 23 22 22 22 20 15 18 21 27 26 26 25 22
61 56 53 54 43 48 43 41 40 34 27 17 15 9 25 37 31 28 28 22 15 21 28 26 26 25 24 24 23 23 22 21 19 16 14 14 18 20 27 26 22 24 27 23
57 46 45 53 40 45 45 40 38 38 37 30 20 20 14 34 41 30 23 29 22 23 30 29 27 28 27 25 23 21 19 17 17 16 17 18 20 25 24 25 25 28 27 21
47 47 50 35 40 44 47 41 42 41 41 39 34 26 23 28 40 45 37 31 32 27 35 33 31 28 29 25 24 23 21 19 18 20 18 22 20 25 26 24 26 27 29 18
48 39 51 38 40 45 45 44 43 46 44 46 42 42 36 30 33 36 50 43 35 28 40 31 35 31 31 30 27 25 23 22 22 18 18 19 21 21 26 23 29 25 31 16
51 38 36 39 40 44 45 47 44 48 46 50 49 50 43 41 35 39 38 56 47 40 36 33 39 36 34 32 30 29 25 25 23 18 17 17 19 24 26 25 24 29 29 24
37 41 35 38 40 45 43 47 45 46 52 53 52 51 52 52 45 42 44 38 57 47 40 39 38 41 38 34 34 30 28 26 23 20 18 17 21 26 28 30 23 26 16 27
46 34 35 37 42 46 45 48 49 55 55 28 22 24 42 53 48 42 42 42 37 58 44 45 41 40 41 38 35 25 30 30 27 22 20 24 25 24 29 29 28 23 14 15
40 35 33 38 43 46 48 45 49 55 55 4 13 14 23 40 41 39 45 41 36 38 57 40 46 43 39 42 36 29 36 36 30 22 23 20 33 26 27 30 20 21 22 23
42 40 35 37 41 34 44 45 48 49 16 27 16 15 20 33 39 39 33 35 34 37 63 53 47 47 43 39 30 37 41 38 29 25 25 18 21 25 29 22 22 26 22 21
45 40 39 36 42 42 43 42 45 37 9 16 27 18 23 30 34 34 32 31 30 32 44 59 48 46 43 39 35 36 42 39 33 29 24 23 26 29 32 26 28 27 21 20
39 43 40 38 39 41 40 40 37 8 19 17 21 24 26 28 27 26 25 23 25 28 30 61 56 46 44 43 44 44 42 35 33 31 29 27 27 25 30 30 35 34 27 24
47 43 42 40 36 37 37 36 36 30 22 16 18 22 22 24 20 19 23 24 22 21 21 27 61 51 49 45 44 47 46 38 37 34 33 33 32 31 29 36 37 35 30 27
49 49 43 39 35 35 36 35 31 26 23 11 5 18 17 14 17 19 19 19 20 20 21 29 29 61 53 49 48 48 47 42 40 38 38 37 36 35 34 32 34 33 33 28
49 48 48 39 37 32 34 32 27 24 21 17 10 9 13 15 16 18 18 19 19 18 23 26 31 35 59 57 52 48 47 46 43 42 43 42 41 40 36 34 32 33 37 32
48 44 43 37 38 35 29 26 24 21 20 16 13 14 15 16 17 17 16 19 21 21 24 26 27 30 34 61 58 53 50 50 46 47 46 44 43 41 36 37 38 36 36 31
46 45 42 38 36 35 31 24 24 22 21 17 16 19 19 15 17 17 20 19 20 22 26 25 25 29 32 38 62 60 56 50 54 50 49 48 45 43 41 44 42 38 36 34
45 45 42 38 37 34 31 27 26 25 21 20 18 18 18 25 20 19 20 20 20 22 27 26 26 28 30 34 38 52 62 57 57 51 53 51 49 47 48 47 43 40 43 39
44 44 41 42 37 39 33 28 27 29 27 22 20 19 20 25 28 25 22 22 24 25 28 28 27 27 28 29 32 35 44 57 60 60 59 54 52 51 50 51 44 46 42 40
41 43 39 37 37 38 40 34 30 31 29 24 21 17 20 21 28 34 27 31 25 24 27 27 29 29 31 31 32 34 36 41 55 58 59 59 57 55 53 54 52 50 44 45
Wind_Direction
341 343 343 346 351 354 6 37 29 55 80 96 105 111 117 128 131 135 134 141 145 148 149 144 168 183 192 193 199 202 208 209 213 218 224 233 237 242 243 251 251 249 251 258
338 338 338 342 349 357 7 12 31 18 100 80 86 109 125 129 132 135 141 135 134 135 146 158 176 172 177 193 208 214 215 214 217 219 220 222 229 238 240 245 248 251 255 258
334 334 336 339 346 353 7 11 33 53 126 107 83 121 131 160 144 164 168 159 163 169 172 180 181 183 192 195 202 205 208 212 220 223 224 228 231 234 237 242 249 253 257 257
332 331 333 337 342 347 5 7 11 30 81 209 176 161 158 170 172 163 173 183 187 179 187 173 174 175 186 191 187 190 192 193 198 203 206 212 214 219 223 227 232 237 244 249
328 328 331 332 339 338 357 8 9 16 28 206 233 190 185 187 179 174 179 190 193 188 192 184 181 182 186 185 186 185 187 191 194 196 200 198 202 207 214 222 233 238 242 248
324 325 328 328 334 341 342 350 1 9 19 27 235 232 322 217 198 247 213 221 210 207 196 190 184 185 182 181 182 186 188 193 198 198 199 208 214 211 209 209 220 229 247 255
321 322 325 340 327 340 341 341 345 359 6 9 21 246 246 265 238 250 309 235 224 221 204 198 193 188 185 184 186 190 192 193 202 204 192 189 194 207 225 236 244 248 250 245
317 318 320 324 320 325 332 332 337 350 350 346 355 238 237 241 250 234 271 256 244 229 209 202 197 190 192 190 193 212 202 196 194 200 206 213 220 225 242 224 238 222 247 236
315 313 317 319 314 320 326 330 330 335 339 335 291 298 261 234 240 246 245 259 264 234 213 203 200 199 202 199 203 199 197 200 207 212 220 227 231 242 211 224 247 248 232 247
313 306 308 316 311 315 322 324 326 326 328 324 321 280 258 249 237 249 248 249 251 241 214 205 206 200 208 206 209 213 210 212 220 226 224 232 244 217 232 226 236 236 248 262
303 305 310 302 307 312 317 321 321 319 321 314 318 300 269 239 238 239 243 241 242 245 217 209 214 214 210 222 221 223 224 225 225 222 230 232 240 224 221 226 230 240 251 264
300 293 309 302 305 309 311 315 316 318 315 307 306 303 285 270 246 238 239 238 232 228 220 226 219 222 222 223 230 234 230 229 228 231 243 228 232 240 226 233 238 246 253 256
300 290 293 300 303 305 310 311 312 313 306 302 301 290 296 287 261 242 237 231 232 225 227 230 221 223 225 226 231 234 238 234 229 240 248 246 241 231 229 236 245 251 260 265
285 291 291 296 302 300 307 309 308 307 300 295 289 285 275 268 260 250 238 235 227 225 221 225 224 222 224 227 229 233 239 232 232 241 241 245 231 242 238 238 248 255 248 269
291 281 294 294 300 300 306 310 306 305 304 280 194 198 223 226 233 230 231 238 237 223 222 220 221 221 223 224 229 233 235 229 238 238 241 240 240 243 237 242 241 257 245 282
288 278 290 296 299 301 312 313 309 311 308 130 113 130 182 205 207 210 225 231 231 226 219 225 218 218 221 222 224 226 234 227 237 244 247 247 236 241 231 236 256 256 253 284
281 286 291 292 298 308 310 316 316 317 81 89 97 131 175 191 190 204 207 223 224 218 216 219 217 218 219 224 213 220 230 226 234 239 247 246 247 250 246 242 250 245 267 276
280 280 291 293 298 301 311 315 316 306 108 104 137 180 179 173 190 201 209 218 218 217 216 216 217 217 216 215 211 235 229 226 235 239 230 247 254 249 246 251 256 258 248 251
269 284 287 293 297 302 313 310 314 4 136 139 137 148 162 175 188 197 204 215 219 222 223 216 218 218 217 212 214 222 230 226 232 235 242 240 255 256 254 258 255 261 248 262
277 280 281 291 296 301 308 309 319 350 340 144 156 168 182 186 196 204 209 215 218 224 221 218 217 217 218 216 212 224 229 228 230 235 241 246 247 254 257 250 256 260 256 256
277 280 285 289 292 297 304 313 322 338 344 181 233 186 196 211 210 209 214 222 219 219 215 216 219 218 219 221 217 219 226 229 229 232 235 240 245 251 258 259 257 264 259 265
272 276 280 287 292 299 296 310 321 328 337 320 259 235 225 221 223 231 224 226 223 212 215 216 219 221 220 222 223 221 224 231 231 232 236 237 243 247 250 261 265 261 262 263
263 268 275 282 287 288 289 305 310 316 311 313 304 259 231 235 239 243 242 225 220 214 214 220 215 217 220 223 225 225 227 229 235 236 238 240 242 246 250 261 262 260 262 259
261 266 271 277 278 275 283 291 293 302 303 305 288 257 253 242 247 248 246 237 223 222 220 220 212 214 218 224 226 228 228 234 233 239 240 242 245 248 248 255 256 261 267 260
258 257 263 265 269 269 273 277 284 286 291 292 282 276 276 244 237 240 243 243 233 227 222 223 217 215 220 224 228 228 230 233 235 240 241 242 246 248 251 256 256 262 265 259
250 252 254 255 262 264 265 267 274 278 282 283 277 273 268 242 238 236 230 233 233 226 223 227 227 223 222 227 229 232 235 233 236 239 242 244 245 249 252 257 252 262 258 255
250 249 251 249 254 258 258 262 264 262 270 273 273 269 262 259 242 240 228 230 223 222 228 232 235 236 232 232 232 232 233 237 235 238 242 244 247 249 251 255 258 260 255 250